Weather in Yakshur

Russia / Udmurt Republic     57°12′46″N   53°09′37″E
temp.,
°C
wind,
m/s
gust,
m/s
humid.,
%
clouds,
%
prec.,
mm/h
press.,
hPa
HPBL,
m
14 august, sun
sun1401:00+11n227451 0.0 102218
04:00+10n127450 0.0 102310
07:00+14n116223 0.0 102373
10:00+20wnw12435 0.0 1023968
13:00+22nw243830 0.0 10222144
16:00+22nw33391 0.0 10221876
19:00+18w116348 0.0 102113
22:00+17wsw116189 0.0 102211
15 august, mon
mon1501:00+14wnw117726 0.0 102211
04:00+12nnw11945 0.0 102310
07:00+15nnw12820 0.0 1023116
10:00+21nne11583 0.1 1023769
13:00+24n224697 0.2 10232022
16:00+22ene125575 0.2 1022345
19:00+19n256260 0.0 1023141
22:00+14nne22710 0.0 102419
16 august, tue
tue1601:00+12nne11740 0.0 102510
04:00+12n11750 0.0 102610
07:00+15nnw12660 0.0 102674
10:00+22nnw22454 0.0 1026744
13:00+24nnw23375 0.0 10252136
16:00+24nnw343810 0.0 10252167
19:00+20nw236320 0.0 102552
22:00+17n227095 0.0 102524
17 august, wed
wed1701:00+14ne117577 0.0 102511
04:00+13nnw117560 0.0 102511
07:00+16wnw11695 0.0 102571
10:00+23wnw24510 0.0 1024786
13:00+25wnw344223 0.0 10232161
16:00+25nw3445100 0.0 10221575
19:00+21nnw2567100 0.0 102192
22:00+17nw257861 0.0 102282
18 august, thu
thu1801:00+16nw228237 0.0 102134
04:00+14nnw22915 0.0 102140
07:00+17n24815 0.0 1021168
10:00+22nne24612 0.0 1021785
13:00+22nne346722 1.1 10211112
16:00+20ene56685 2.6 1022838
19:00+17ene38615 0.0 1023482
22:00+11e27730 0.0 1024133